{"data":{"norad_id":51863,"epoch":"2026-09-20T04:00:03.000096Z","epoch_age_seconds":80652,"freshness":"FRESH","line1":"1 51863U 22022M   26263.16670139  .00012883  00000+0  39197-3 0  9996","line2":"2 51863  53.1589 204.9804 0001423  78.4933 127.7996 15.34383302  5869","mean_motion":15.34383302,"eccentricity":0.0001423,"inclination_deg":53.1589,"raan_deg":204.9804,"arg_perigee_deg":78.4933,"mean_anomaly_deg":127.7996,"bstar":0.00039197,"rev_number":586,"period_min":93.848779384071,"perigee_km":461.77941200354,"apogee_km":463.72632926072,"semimajor_km":6840.8898706321,"source":"CELESTRAK","updated_at":"2026-09-20T09:00:39.946653Z"}}